TimeEDT,TemperatureF,Dew PointF,Humidity,Sea Level PressureIn,VisibilityMPH,Wind Direction,Wind SpeedMPH,Gust SpeedMPH,PrecipitationIn,Events,Conditions,WindDirDegrees,DateUTC
12:15 AM,64.4,64.4,100,29.97,7.0,Calm,Calm,-,N/A,,Overcast,0,2013-10-12 04:15:00
12:35 AM,66.2,66.2,100,29.97,7.0,Calm,Calm,-,N/A,,Overcast,0,2013-10-12 04:35:00
12:55 AM,66.2,66.2,100,29.97,7.0,Calm,Calm,-,N/A,,Overcast,0,2013-10-12 04:55:00
1:15 AM,66.2,66.2,100,29.96,7.0,NE,4.6,-,N/A,,Overcast,40,2013-10-12 05:15:00
1:35 AM,66.2,66.2,100,29.96,10.0,NE,3.5,-,N/A,,Overcast,40,2013-10-12 05:35:00
1:55 AM,66.2,66.2,100,29.96,7.0,Calm,Calm,-,N/A,,Overcast,0,2013-10-12 05:55:00
2:15 AM,64.4,64.4,100,29.96,7.0,North,3.5,-,N/A,,Overcast,10,2013-10-12 06:15:00
2:35 AM,64.4,64.4,100,29.96,7.0,Calm,Calm,-,N/A,,Overcast,0,2013-10-12 06:35:00
2:55 AM,64.4,64.4,100,29.95,7.0,Calm,Calm,-,N/A,,Overcast,0,2013-10-12 06:55:00
3:15 AM,64.4,64.4,100,29.95,10.0,NE,3.5,-,N/A,,Overcast,40,2013-10-12 07:15:00
3:35 AM,64.4,64.4,100,29.95,7.0,NE,3.5,-,N/A,,Overcast,50,2013-10-12 07:35:00
3:55 AM,64.4,64.4,100,29.95,10.0,Calm,Calm,-,N/A,,Overcast,0,2013-10-12 07:55:00
4:15 AM,64.4,64.4,100,29.95,7.0,Calm,Calm,-,N/A,,Overcast,0,2013-10-12 08:15:00
4:35 AM,64.4,64.4,100,29.95,7.0,Calm,Calm,-,N/A,,Overcast,0,2013-10-12 08:35:00
4:55 AM,64.4,64.4,100,29.96,7.0,Calm,Calm,-,N/A,,Overcast,0,2013-10-12 08:55:00
5:15 AM,64.4,64.4,100,29.96,7.0,Calm,Calm,-,N/A,,Overcast,0,2013-10-12 09:15:00
5:35 AM,62.6,62.6,100,29.97,10.0,Calm,Calm,-,N/A,,Overcast,0,2013-10-12 09:35:00
5:55 AM,62.6,62.6,100,29.98,7.0,Calm,Calm,-,N/A,,Overcast,0,2013-10-12 09:55:00
6:15 AM,64.4,64.4,100,29.99,7.0,Calm,Calm,-,N/A,,Overcast,0,2013-10-12 10:15:00
6:35 AM,64.4,64.4,100,29.99,7.0,Calm,Calm,-,N/A,,Overcast,0,2013-10-12 10:35:00
7:15 AM,62.6,62.6,100,30.00,7.0,Calm,Calm,-,N/A,,Overcast,0,2013-10-12 11:15:00
7:35 AM,64.4,64.4,100,30.01,7.0,Calm,Calm,-,N/A,,Overcast,0,2013-10-12 11:35:00
7:55 AM,64.4,64.4,100,30.01,7.0,Calm,Calm,-,N/A,,Overcast,0,2013-10-12 11:55:00
8:15 AM,64.4,64.4,100,30.02,5.0,Calm,Calm,-,N/A,,Overcast,0,2013-10-12 12:15:00
8:35 AM,64.4,64.4,100,30.02,5.0,Calm,Calm,-,N/A,,Mostly Cloudy,0,2013-10-12 12:35:00
8:55 AM,66.2,64.4,94,30.03,7.0,Calm,Calm,-,N/A,,Scattered Clouds,0,2013-10-12 12:55:00
9:15 AM,68.0,64.4,88,30.04,5.0,North,3.5,-,N/A,,Clear,350,2013-10-12 13:15:00
9:35 AM,69.8,64.4,83,30.04,7.0,North,6.9,-,N/A,,Clear,10,2013-10-12 13:35:00
9:55 AM,69.8,62.6,78,30.04,7.0,North,4.6,-,N/A,,Clear,10,2013-10-12 13:55:00
10:15 AM,69.8,62.6,78,30.04,7.0,NNE,4.6,-,N/A,,Clear,20,2013-10-12 14:15:00
10:35 AM,71.6,62.6,73,30.03,7.0,West,4.6,-,N/A,,Clear,280,2013-10-12 14:35:00
10:55 AM,71.6,62.6,73,30.03,7.0,NNW,4.6,-,N/A,,Clear,330,2013-10-12 14:55:00
11:15 AM,73.4,60.8,65,30.03,7.0,North,3.5,-,N/A,,Clear,350,2013-10-12 15:15:00
11:35 AM,73.4,60.8,65,30.03,7.0,North,8.1,-,N/A,,Clear,350,2013-10-12 15:35:00
11:55 AM,73.4,60.8,65,30.03,7.0,North,4.6,-,N/A,,Clear,350,2013-10-12 15:55:00
12:15 PM,75.2,60.8,61,30.02,7.0,NNW,4.6,-,N/A,,Clear,340,2013-10-12 16:15:00
12:35 PM,77.0,60.8,57,30.01,7.0,West,3.5,-,N/A,,Clear,280,2013-10-12 16:35:00
12:55 PM,77.0,60.8,57,30.01,5.0,NNW,6.9,-,N/A,,Haze,340,2013-10-12 16:55:00
1:15 PM,77.0,60.8,57,30.00,5.0,NNW,4.6,-,N/A,,Haze,330,2013-10-12 17:15:00
1:35 PM,78.8,60.8,54,30.00,7.0,NW,4.6,-,N/A,,Scattered Clouds,310,2013-10-12 17:35:00
1:55 PM,78.8,60.8,54,29.99,7.0,Calm,Calm,-,N/A,,Scattered Clouds,0,2013-10-12 17:55:00
2:15 PM,78.8,60.8,54,29.99,7.0,West,4.6,-,N/A,,Scattered Clouds,270,2013-10-12 18:15:00
2:35 PM,78.8,60.8,54,29.99,7.0,West,4.6,-,N/A,,Scattered Clouds,260,2013-10-12 18:35:00
2:55 PM,80.6,62.6,54,29.99,7.0,NW,3.5,-,N/A,,Mostly Cloudy,320,2013-10-12 18:55:00
3:15 PM,78.8,60.8,54,29.99,7.0,NNW,5.8,-,N/A,,Mostly Cloudy,330,2013-10-12 19:15:00
3:35 PM,78.8,60.8,54,29.99,7.0,WNW,4.6,-,N/A,,Scattered Clouds,290,2013-10-12 19:35:00
3:55 PM,78.8,60.8,54,29.99,7.0,North,8.1,-,N/A,,Mostly Cloudy,10,2013-10-12 19:55:00
4:15 PM,77.0,60.8,57,29.99,7.0,North,3.5,-,N/A,,Mostly Cloudy,350,2013-10-12 20:15:00
4:35 PM,78.8,60.8,54,29.99,7.0,Calm,Calm,-,N/A,,Scattered Clouds,0,2013-10-12 20:35:00
4:55 PM,78.8,60.8,54,29.99,7.0,NNW,4.6,-,N/A,,Clear,330,2013-10-12 20:55:00
5:15 PM,77.0,60.8,57,29.99,5.0,NNW,3.5,-,N/A,,Haze,330,2013-10-12 21:15:00
5:35 PM,77.0,60.8,57,29.99,7.0,NNW,3.5,-,N/A,,Clear,330,2013-10-12 21:35:00
5:55 PM,77.0,60.8,57,30.00,5.0,NNW,3.5,-,N/A,,Haze,330,2013-10-12 21:55:00
6:15 PM,75.2,60.8,61,30.01,7.0,Calm,Calm,-,N/A,,Clear,0,2013-10-12 22:15:00
6:35 PM,71.6,62.6,73,30.01,7.0,Calm,Calm,-,N/A,,Clear,0,2013-10-12 22:35:00
6:55 PM,69.8,62.6,78,30.01,7.0,Calm,Calm,-,N/A,,Clear,0,2013-10-12 22:55:00
7:15 PM,68.0,62.6,83,30.02,10.0,Calm,Calm,-,N/A,,Clear,0,2013-10-12 23:15:00
7:35 PM,68.0,62.6,83,30.03,7.0,Calm,Calm,-,N/A,,Clear,0,2013-10-12 23:35:00
7:55 PM,66.2,66.2,100,30.04,7.0,Calm,Calm,-,N/A,,Scattered Clouds,0,2013-10-12 23:55:00
8:15 PM,64.4,64.4,100,30.04,7.0,Calm,Calm,-,N/A,,Scattered Clouds,0,2013-10-13 00:15:00
8:35 PM,64.4,64.4,100,30.05,7.0,Calm,Calm,-,N/A,,Clear,0,2013-10-13 00:35:00
8:55 PM,64.4,64.4,100,30.05,7.0,Calm,Calm,-,N/A,,Clear,0,2013-10-13 00:55:00
9:15 PM,62.6,62.6,100,30.06,7.0,Calm,Calm,-,N/A,,Clear,0,2013-10-13 01:15:00
9:35 PM,62.6,62.6,100,30.06,7.0,Calm,Calm,-,N/A,,Clear,0,2013-10-13 01:35:00
9:55 PM,62.6,62.6,100,30.06,10.0,Calm,Calm,-,N/A,,Clear,0,2013-10-13 01:55:00
10:15 PM,62.6,62.6,100,30.06,7.0,Calm,Calm,-,N/A,,Clear,0,2013-10-13 02:15:00
10:35 PM,60.8,60.8,100,30.07,7.0,Calm,Calm,-,N/A,,Clear,0,2013-10-13 02:35:00
10:55 PM,60.8,60.8,100,30.07,10.0,Calm,Calm,-,N/A,,Clear,0,2013-10-13 02:55:00
11:15 PM,60.8,60.8,100,30.07,7.0,Calm,Calm,-,N/A,,Clear,0,2013-10-13 03:15:00
11:35 PM,60.8,60.8,100,30.07,7.0,Calm,Calm,-,N/A,,Clear,0,2013-10-13 03:35:00
11:55 PM,60.8,60.8,100,30.07,7.0,Calm,Calm,-,N/A,,Clear,0,2013-10-13 03:55:00